📊 Raw Sensor Data
Showing records 52901 to 52925 of 85,318 total
| ID | Distance (ft) | Battery V | Battery A | Int Temp (°F) | Int Humid (%) | Ext Temp (°F) | Solar V | RSSI | SNR | Time Stamp |
|---|---|---|---|---|---|---|---|---|---|---|
| 32430 | 12.7 | 3.78 | 0 | 38 | 37 | 41 | 4.50 | -85 | 8 | 02/15/2025 07:15 AM |
| 32429 | 12.7 | 3.62 | 0 | 37 | 37 | 40 | 4.50 | -86 | 8 | 02/15/2025 07:00 AM |
| 32428 | 12.7 | 3.57 | -8 | 37 | 38 | 39 | 1.70 | -87 | 7 | 02/15/2025 06:45 AM |
| 32427 | 12.7 | 3.58 | -5 | 37 | 38 | 40 | 0.70 | -86 | 8 | 02/15/2025 06:30 AM |
| 32426 | 12.7 | 3.78 | -5 | 38 | 37 | 40 | 0.10 | -86 | 8 | 02/15/2025 06:15 AM |
| 32425 | 12.7 | 3.63 | -5 | 39 | 37 | 41 | 0.10 | -85 | 9 | 02/15/2025 06:00 AM |
| 32424 | 12.7 | 3.63 | -5 | 39 | 37 | 41 | 0.10 | -85 | 8 | 02/15/2025 05:45 AM |
| 32423 | 12.8 | 3.65 | -5 | 39 | 37 | 41 | 0.10 | -84 | 8 | 02/15/2025 05:30 AM |
| 32422 | 12.7 | 3.65 | -5 | 40 | 37 | 41 | 0.10 | -84 | 8 | 02/15/2025 05:15 AM |
| 32421 | 12.7 | 3.65 | -5 | 39 | 37 | 42 | 0.10 | -85 | 9 | 02/15/2025 05:00 AM |
| 32420 | 12.7 | 3.79 | -5 | 40 | 37 | 41 | 0.10 | -85 | 8 | 02/15/2025 04:45 AM |
| 32419 | 12.7 | 3.79 | -5 | 40 | 37 | 41 | 0.00 | -83 | 9 | 02/15/2025 04:30 AM |
| 32418 | 12.7 | 3.60 | -5 | 40 | 37 | 42 | 0.10 | -83 | 9 | 02/15/2025 04:15 AM |
| 32417 | 12.8 | 3.64 | -5 | 40 | 37 | 42 | 0.00 | -84 | 8 | 02/15/2025 04:00 AM |
| 32416 | 12.8 | 3.63 | -5 | 40 | 37 | 41 | 0.00 | -91 | 8 | 02/15/2025 03:45 AM |
| 32415 | 12.8 | 3.62 | -5 | 40 | 37 | 41 | 0.00 | -88 | 7 | 02/15/2025 03:30 AM |
| 32414 | 12.8 | 3.61 | -5 | 40 | 37 | 40 | 0.00 | -88 | 8 | 02/15/2025 03:15 AM |
| 32413 | 12.7 | 3.79 | -5 | 41 | 37 | 43 | 0.00 | -91 | 7 | 02/15/2025 03:00 AM |
| 32412 | 12.8 | 3.79 | -5 | 40 | 37 | 43 | 0.10 | -87 | 8 | 02/15/2025 02:45 AM |
| 32411 | 12.7 | 3.80 | -5 | 40 | 37 | 42 | 0.10 | -86 | 8 | 02/15/2025 02:30 AM |
| 32410 | 12.8 | 3.75 | -5 | 40 | 37 | 42 | 0.10 | -86 | 8 | 02/15/2025 02:15 AM |
| 32409 | 12.7 | 3.77 | -5 | 40 | 37 | 42 | 0.00 | -87 | 8 | 02/15/2025 02:00 AM |
| 32408 | 12.7 | 3.77 | -5 | 40 | 37 | 42 | 0.10 | -88 | 7 | 02/15/2025 01:45 AM |
| 32407 | 12.7 | 3.82 | -5 | 40 | 37 | 42 | 0.00 | -87 | 8 | 02/15/2025 01:30 AM |
| 32406 | 12.7 | 3.82 | -5 | 41 | 37 | 42 | 0.00 | -86 | 8 | 02/15/2025 01:15 AM |